FW9064 Weather Reports


Display with metric or nautical units.
time (UTC)temp
F
wind
direction
speed
MPH
gust
MPH
rain 1hr
in
rain 24hr
in
rain mn
in
humidity
%
barometer
mb
20260506062056 69 129 1.0 1.0 0.00 0.00 0.00 81 1012.8
20260506061552 68 107 0.0 0.0 0.00 0.00 0.00 81 1012.8
20260506061050 69 108 0.0 0.0 0.00 0.00 0.00 81 1013.0
20260506060548 69 143 1.0 1.0 0.00 0.00 0.00 81 1012.9
20260506051017 68 115 0.0 0.0 0.00 0.00 0.00 81 1012.8
20260506050515 68 115 1.0 1.0 0.00 0.00 0.00 81 1013.1
20260506045005 68 111 0.0 0.0 0.00 0.00 0.00 83 1012.7
20260506044503 68 139 1.0 1.0 0.00 0.00 0.00 83 1012.7
20260506044000 67 115 1.0 2.0 0.00 0.00 0.00 83 1012.7
20260506043457 66 108 0.0 0.0 0.00 0.00 0.00 86 1012.5
20260506042955 65 119 0.0 0.0 0.00 0.00 0.00 89 1012.7
20260506042454 65 112 0.0 0.0 0.00 0.00 0.00 90 1012.6
20260506041952 64 125 1.0 1.0 0.00 0.00 0.00 91 1012.9
20260506041450 64 111 0.0 0.0 0.00 0.00 0.00 92 1012.8
20260506040947 64 108 0.0 0.0 0.00 0.00 0.00 92 1012.9
20260506040444 63 110 0.0 0.0 0.00 0.00 0.00 93 1012.5
20260506035940 63 114 0.0 0.0 0.00 0.00 0.00 93 1013.1
20260506035438 63 110 0.0 0.0 0.00 0.00 0.00 93 1012.9
20260506034934 63 112 0.0 0.0 0.00 0.00 0.00 93 1012.8
20260506034431 63 111 0.0 0.0 0.00 0.00 0.00 93 1012.8
20260506033928 63 112 0.0 0.0 0.00 0.00 0.00 92 1012.8
20260506033426 64 110 0.0 0.0 0.00 0.00 0.00 92 1013.1
20260506032922 64 111 0.0 0.0 0.00 0.00 0.00 92 1013.2
20260506032419 64 118 0.0 0.0 0.00 0.00 0.00 91 1012.8
20260506031916 64 111 0.0 0.0 0.00 0.00 0.00 91 1012.8
20260506031413 64 110 0.0 0.0 0.00 0.00 0.00 91 1012.7
20260506030911 64 112 0.0 0.0 0.00 0.00 0.00 91 1012.6
20260506030409 65 111 0.0 0.0 0.00 0.00 0.00 90 1012.5
20260506025905 65 111 0.0 0.0 0.00 0.00 0.00 90 1012.5
20260506025403 65 110 0.0 0.0 0.00 0.00 0.00 89 1012.4
20260506024859 66 110 0.0 0.0 0.00 0.00 0.00 89 1012.6
20260506024356 66 111 0.0 0.0 0.00 0.00 0.00 88 1012.6
20260506023852 66 111 0.0 0.0 0.00 0.00 0.00 87 1012.5
20260506023349 66 111 0.0 0.0 0.00 0.00 0.00 87 1012.7
20260506022846 67 111 0.0 0.0 0.00 0.00 0.00 87 1012.4
20260506022343 67 111 0.0 0.0 0.00 0.00 0.00 86 1012.5
20260506021841 67 111 0.0 0.0 0.00 0.00 0.00 86 1012.1
20260506021338 67 111 0.0 0.0 0.00 0.00 0.00 86 1012.2
20260506020834 67 111 0.0 0.0 0.00 0.00 0.00 86 1012.5
20260506020333 68 111 0.0 0.0 0.00 0.00 0.00 86 1012.4
20260506015830 68 111 0.0 0.0 0.00 0.00 0.00 85 1012.4
20260506015327 68 111 0.0 0.0 0.00 0.00 0.00 85 1012.1
20260506014824 69 111 0.0 0.0 0.00 0.00 0.00 84 1012.1
20260506014321 69 112 0.0 0.0 0.00 0.00 0.00 83 1012.5
20260506013817 69 114 0.0 0.0 0.00 0.00 0.00 83 1012.2
20260506013315 69 112 0.0 0.0 0.00 0.00 0.00 83 1012.2
20260506012811 69 113 0.0 0.0 0.00 0.00 0.00 82 1012.5
20260506012308 69 111 0.0 0.0 0.00 0.00 0.00 82 1012.5
20260506011805 69 112 0.0 0.0 0.00 0.00 0.00 82 1012.4
20260506011302 69 112 0.0 0.0 0.00 0.00 0.00 82 1012.4
20260506010800 69 111 0.0 0.0 0.00 0.00 0.00 82 1012.3
20260506010257 70 111 0.0 0.0 0.00 0.00 0.00 81 1012.1
20260506005754 70 114 0.0 0.0 0.00 0.00 0.00 80 1012.2
20260506005251 70 112 0.0 0.0 0.00 0.00 0.00 78 1012.2
20260506004747 71 112 0.0 0.0 0.00 0.00 0.00 78 1012.2
20260506004245 71 112 0.0 0.0 0.00 0.00 0.00 77 1012.1
20260506003740 71 112 0.0 0.0 0.00 0.00 0.00 76 1011.9
20260506003237 72 112 0.0 0.0 0.00 0.00 0.00 76 1012.1
20260506002733 72 111 0.0 0.0 0.00 0.00 0.00 75 1012.0
20260506002229 72 112 0.0 0.0 0.00 0.00 0.00 75 1012.1
20260506001725 73 112 0.0 0.0 0.00 0.00 0.00 74 1012.1
20260506001223 73 112 0.0 0.0 0.00 0.00 0.00 74 1012.2
20260506000720 73 111 0.0 0.0 0.00 0.00 0.00 72 1012.3
20260506000219 73 112 0.0 0.0 0.00 0.00 0.00 72 1012.2
20260505235714 74 111 0.0 0.0 0.00 0.00 0.00 71 1012.3
20260505235212 74 112 0.0 0.0 0.00 0.00 0.00 70 1012.3
20260505234709 74 112 0.0 0.0 0.00 0.00 0.00 70 1012.2
20260505234206 74 112 0.0 0.0 0.00 0.00 0.00 69 1012.3
20260505233702 74 112 0.0 0.0 0.00 0.00 0.00 68 1012.1
20260505233200 75 112 0.0 0.0 0.00 0.00 0.00 68 1012.2
20260505232658 75 121 0.0 0.0 0.00 0.00 0.00 66 1012.6
20260505232155 75 110 0.0 0.0 0.00 0.00 0.00 66 1012.6
20260505231651 76 113 0.0 0.0 0.00 0.00 0.00 66 1012.7
20260505231151 76 112 0.0 0.0 0.00 0.00 0.00 63 1012.6
20260505230648 76 113 0.0 0.0 0.00 0.00 0.00 63 1012.4
20260505230145 76 114 0.0 0.0 0.00 0.00 0.00 63 1012.9
20260505225640 76 113 0.0 0.0 0.00 0.00 0.00 63 1012.5
20260505225137 76 113 0.0 0.0 0.00 0.00 0.00 63 1012.8
20260505224633 76 113 0.0 0.0 0.00 0.00 0.00 62 1012.8
20260505224132 76 118 0.0 0.0 0.00 0.00 0.00 62 1012.8
20260505223629 76 113 0.0 0.0 0.00 0.00 0.00 61 1012.8
20260505223125 77 113 0.0 0.0 0.00 0.00 0.00 60 1012.7
20260505222621 77 113 0.0 0.0 0.00 0.00 0.00 59 1012.5
20260505222117 77 139 0.0 1.0 0.00 0.00 0.00 59 1012.6
20260505221614 77 113 0.0 0.0 0.00 0.00 0.00 59 1012.5
20260505221111 77 152 0.0 0.0 0.00 0.00 0.00 59 1012.7
20260505220608 78 122 0.0 0.0 0.00 0.00 0.00 59 1012.6
20260505220106 77 112 0.0 0.0 0.00 0.00 0.00 59 1012.7
20260505215604 77 109 0.0 0.0 0.00 0.00 0.00 58 1012.9
20260505215101 77 114 0.0 0.0 0.00 0.00 0.00 58 1013.0
20260505214559 77 156 0.0 1.0 0.00 0.00 0.00 58 1012.7
20260505214056 77 116 0.0 1.0 0.00 0.00 0.00 59 1013.0
20260505213554 77 119 0.0 0.0 0.00 0.00 0.00 58 1012.6
20260505213050 78 117 0.0 1.0 0.00 0.00 0.00 59 1012.7
20260505212546 78 107 0.0 1.0 0.00 0.00 0.00 60 1012.7
20260505212044 78 134 1.0 1.0 0.00 0.00 0.00 58 1012.7
20260505211541 78 114 1.0 1.0 0.00 0.00 0.00 57 1012.6
20260505211037 78 120 1.0 1.0 0.00 0.00 0.00 58 1012.5
20260505210534 78 202 3.0 5.0 0.00 0.00 0.00 57 1012.4
20260505210031 78 142 2.0 2.0 0.00 0.00 0.00 56 1012.7
20260505205529 78 113 1.0 2.0 0.00 0.00 0.00 57 1012.6
20260505205026 78 112 1.0 1.0 0.00 0.00 0.00 57 1012.5
20260505204518 78 173 1.0 1.0 0.00 0.00 0.00 56 1012.9
20260505204015 79 121 1.0 1.0 0.00 0.00 0.00 56 1012.7
20260505203511 79 94 2.0 3.0 0.00 0.00 0.00 54 1012.9
20260505203008 78 133 2.0 3.0 0.00 0.00 0.00 56 1012.8
20260505202504 78 94 0.0 0.0 0.00 0.00 0.00 58 1012.8
20260505202000 78 100 1.0 1.0 0.00 0.00 0.00 56 1013.2
20260505201458 77 203 2.0 2.0 0.00 0.00 0.00 58 1013.2
20260505200955 77 130 0.0 1.0 0.00 0.00 0.00 57 1013.4
20260505200453 78 106 2.0 2.0 0.00 0.00 0.00 57 1013.6
20260505195948 77 286 2.0 3.0 0.00 0.00 0.00 57 1013.4
20260505195446 78 63 3.0 3.0 0.00 0.00 0.00 56 1013.7
20260505194943 78 133 0.0 0.0 0.00 0.00 0.00 58 1013.5
20260505194440 78 116 2.0 3.0 0.00 0.00 0.00 56 1013.9
20260505193940 79 195 2.0 3.0 0.00 0.00 0.00 55 1013.7
20260505193438 78 95 1.0 1.0 0.00 0.00 0.00 54 1013.6
20260505192936 78 118 1.0 2.0 0.00 0.00 0.00 56 1013.6
20260505192434 79 82 0.0 1.0 0.00 0.00 0.00 56 1013.6
20260505191931 78 117 1.0 1.0 0.00 0.00 0.00 56 1013.9
20260505191430 79 104 1.0 3.0 0.00 0.00 0.00 54 1013.8
20260505190926 79 181 4.0 6.0 0.00 0.00 0.00 54 1013.9
20260505190421 78 118 1.0 1.0 0.00 0.00 0.00 56 1014.0
20260505185917 79 120 1.0 1.0 0.00 0.00 0.00 55 1014.2
20260505185414 78 130 1.0 1.0 0.00 0.00 0.00 57 1014.3
20260505184910 78 108 0.0 0.0 0.00 0.00 0.00 55 1014.1
20260505184407 78 116 1.0 2.0 0.00 0.00 0.00 56 1014.3
20260505183904 78 127 3.0 3.0 0.00 0.00 0.00 55 1014.5
20260505183401 78 112 0.0 1.0 0.00 0.00 0.00 58 1014.5
20260505182858 76 126 1.0 1.0 0.00 0.00 0.00 57 1014.5
20260505182355 76 88 1.0 1.0 0.00 0.00 0.00 58 1014.5
20260505181851 76 116 2.0 3.0 0.00 0.00 0.00 58 1014.6
20260505181348 76 114 1.0 2.0 0.00 0.00 0.00 55 1014.7
20260505180845 76 115 2.0 2.0 0.00 0.00 0.00 55 1014.7
20260505180341 76 176 2.0 2.0 0.00 0.00 0.00 56 1014.6
20260505175838 76 187 2.0 2.0 0.00 0.00 0.00 58 1014.7
20260505175334 75 118 1.0 1.0 0.00 0.00 0.00 58 1014.9
20260505174831 76 125 0.0 1.0 0.00 0.00 0.00 59 1015.0
20260505174329 77 157 1.0 1.0 0.00 0.00 0.00 57 1015.0
20260505173824 77 71 2.0 3.0 0.00 0.00 0.00 56 1015.0
20260505173321 77 110 1.0 3.0 0.00 0.00 0.00 59 1015.1
20260505172818 76 118 1.0 1.0 0.00 0.00 0.00 58 1015.2
20260505172315 77 111 1.0 1.0 0.00 0.00 0.00 56 1015.1
20260505171810 77 142 3.0 3.0 0.00 0.00 0.00 56 1015.3
20260505171307 77 127 2.0 2.0 0.00 0.00 0.00 55 1015.3
20260505170803 77 120 0.0 0.0 0.00 0.00 0.00 55 1015.4
20260505170300 77 121 1.0 1.0 0.00 0.00 0.00 55 1015.8
20260505165755 76 106 0.0 0.0 0.00 0.00 0.00 55 1015.3
20260505165252 77 158 0.0 0.0 0.00 0.00 0.00 56 1015.4
20260505164747 77 223 2.0 3.0 0.00 0.00 0.00 54 1015.4
20260505164245 76 107 0.0 0.0 0.00 0.00 0.00 53 1015.4
20260505163743 76 156 1.0 2.0 0.00 0.00 0.00 56 1015.2
20260505163241 76 122 0.0 0.0 0.00 0.00 0.00 55 1015.2
20260505162738 75 125 5.0 6.0 0.00 0.00 0.00 54 1015.4
20260505162235 75 58 1.0 1.0 0.00 0.00 0.00 56 1015.6
20260505161732 76 152 2.0 3.0 0.00 0.00 0.00 54 1015.5
20260505161230 75 110 1.0 2.0 0.00 0.00 0.00 55 1015.5
20260505160727 75 82 1.0 1.0 0.00 0.00 0.00 55 1015.1
20260505160225 75 114 0.0 0.0 0.00 0.00 0.00 55 1015.5
20260505153204 72 163 1.0 2.0 0.00 0.00 0.00 63 1015.6
20260505152700 72 130 2.0 2.0 0.00 0.00 0.00 61 1016.0
20260505152156 73 124 1.0 2.0 0.00 0.00 0.00 61 1016.1
20260505151651 72 98 1.0 1.0 0.00 0.00 0.00 62 1015.8
20260505151149 72 98 2.0 2.0 0.00 0.00 0.00 63 1015.9
20260505150645 72 106 0.0 0.0 0.00 0.00 0.00 65 1015.9
20260505150143 71 114 2.0 2.0 0.00 0.00 0.00 65 1016.0
20260505140611 68 121 1.0 1.0 0.00 0.00 0.00 70 1015.9
20260505140108 67 125 0.0 0.0 0.00 0.00 0.00 71 1015.6
20260505125024 59 109 0.0 0.0 0.00 0.00 0.00 97 1015.0
20260505124521 58 109 0.0 0.0 0.00 0.00 0.00 99 1014.9
20260505124017 57 109 0.0 0.0 0.00 0.00 0.00 99 1015.0
20260505123514 56 109 0.0 0.0 0.00 0.00 0.00 99 1014.8
20260505123010 53 109 0.0 0.0 0.00 0.00 0.00 99 1014.8
20260505122507 52 110 0.0 0.0 0.00 0.00 0.00 99 1014.9
20260505122004 51 109 0.0 0.0 0.00 0.00 0.00 99 1014.9
20260505121501 51 110 0.0 0.0 0.00 0.00 0.00 99 1014.8
20260505120957 50 109 0.0 0.0 0.00 0.00 0.00 99 1014.7
20260505120453 50 109 0.0 0.0 0.00 0.00 0.00 99 1014.7
20260505115952 49 108 0.0 0.0 0.00 0.00 0.00 99 1014.6
20260505115449 49 106 0.0 0.0 0.00 0.00 0.00 99 1014.6
20260505114947 49 110 0.0 0.0 0.00 0.00 0.00 99 1014.6
20260505114443 48 111 0.0 0.0 0.00 0.00 0.00 99 1014.7
20260505113940 48 109 0.0 0.0 0.00 0.00 0.00 99 1014.5
20260505113436 48 109 0.0 0.0 0.00 0.00 0.00 99 1014.5
20260505112932 48 109 0.0 0.0 0.00 0.00 0.00 99 1014.5
20260505112430 47 109 0.0 0.0 0.00 0.00 0.00 99 1014.2
20260505111926 48 111 0.0 0.0 0.00 0.00 0.00 99 1014.4
20260505111421 48 110 0.0 0.0 0.00 0.00 0.00 99 1014.0
20260505110917 48 108 0.0 0.0 0.00 0.00 0.00 99 1014.1
20260505110414 48 110 0.0 0.0 0.00 0.00 0.00 99 1014.2
20260505101845 48 111 0.0 0.0 0.00 0.00 0.00 99 1013.9
20260505101339 49 113 0.0 0.0 0.00 0.00 0.00 99 1013.8
20260505100836 49 110 0.0 0.0 0.00 0.00 0.00 99 1013.9
20260505100332 49 109 0.0 0.0 0.00 0.00 0.00 99 1013.9
20260505095828 49 110 0.0 0.0 0.00 0.00 0.00 99 1014.0
20260505095326 49 110 0.0 0.0 0.00 0.00 0.00 99 1014.1
20260505094821 49 108 0.0 0.0 0.00 0.00 0.00 99 1014.0
20260505094319 49 110 0.0 0.0 0.00 0.00 0.00 99 1014.4
20260505093814 49 112 0.0 0.0 0.00 0.00 0.00 99 1014.2
20260505093312 49 112 0.0 0.0 0.00 0.00 0.00 99 1014.2
20260505092808 49 112 0.0 0.0 0.00 0.00 0.00 99 1014.0
20260505092307 49 112 0.0 0.0 0.00 0.00 0.00 99 1014.3
20260505091804 49 111 0.0 0.0 0.00 0.00 0.00 99 1014.4
20260505091302 49 111 0.0 0.0 0.00 0.00 0.00 99 1014.3
20260505090800 49 110 0.0 0.0 0.00 0.00 0.00 99 1014.3
20260505090258 50 113 0.0 0.0 0.00 0.00 0.00 99 1014.2
20260505085755 50 110 0.0 0.0 0.00 0.00 0.00 99 1014.3
20260505085253 50 109 0.0 0.0 0.00 0.00 0.00 99 1014.3
20260505084750 50 110 0.0 0.0 0.00 0.00 0.00 99 1014.3
20260505084249 50 108 0.0 0.0 0.00 0.00 0.00 99 1014.3
20260505083746 50 106 0.0 0.0 0.00 0.00 0.00 98 1014.3
20260505083242 50 111 0.0 0.0 0.00 0.00 0.00 98 1014.4
20260505082739 50 111 0.0 0.0 0.00 0.00 0.00 98 1014.2
20260505082236 50 112 0.0 0.0 0.00 0.00 0.00 98 1014.5
20260505081732 50 115 0.0 0.0 0.00 0.00 0.00 98 1014.4
20260505081229 50 111 0.0 0.0 0.00 0.00 0.00 98 1014.2
20260505080726 50 110 0.0 0.0 0.00 0.00 0.00 98 1014.5
20260505080221 50 109 0.0 0.0 0.00 0.00 0.00 98 1014.4
20260505075717 50 110 0.0 0.0 0.00 0.00 0.00 98 1014.4
20260505075215 50 110 0.0 0.0 0.00 0.00 0.00 98 1014.4
20260505074712 50 108 0.0 0.0 0.00 0.00 0.00 98 1014.4
20260505074209 50 108 0.0 0.0 0.00 0.00 0.00 98 1014.6
20260505073707 50 110 0.0 0.0 0.00 0.00 0.00 98 1014.7
20260505073204 50 111 0.0 0.0 0.00 0.00 0.00 98 1014.5
20260505072700 50 110 0.0 0.0 0.00 0.00 0.00 98 1014.3
20260505072157 50 108 0.0 0.0 0.00 0.00 0.00 97 1014.5
20260505071652 50 111 0.0 0.0 0.00 0.00 0.00 97 1014.2
20260505071150 51 110 0.0 0.0 0.00 0.00 0.00 97 1014.4
20260505070647 51 110 0.0 0.0 0.00 0.00 0.00 97 1014.5
20260505070143 51 109 0.0 0.0 0.00 0.00 0.00 97 1014.2
20260505065639 51 111 0.0 0.0 0.00 0.00 0.00 97 1014.5
20260505065136 50 114 0.0 0.0 0.00 0.00 0.00 97 1014.4
20260505064633 50 110 0.0 0.0 0.00 0.00 0.00 97 1014.5
20260505064131 50 112 0.0 0.0 0.00 0.00 0.00 97 1014.4
20260505063628 51 110 0.0 0.0 0.00 0.00 0.00 96 1014.4
20260505063124 51 110 0.0 0.0 0.00 0.00 0.00 96 1014.3
20260505062621 51 112 0.0 0.0 0.00 0.00 0.00 96 1014.6